OE3WYC-1 Weather Reports


time (UTC)temp
C
wind
direction
speed
KPH
gust
KPH
rain 1hr
cm
rain 24hr
cm
rain mn
cm
humidity
%
barometer
mb
20260504151005 26 203 0.0 9.7 0.00 0.00 0.00 30 1010.3
20260504150506 26 203 0.0 9.7 0.00 0.00 0.00 30 1010.4
20260504141005 27 196 0.0 11.3 0.00 0.00 0.00 31 1010.7
20260504140506 27 195 0.0 11.3 0.00 0.00 0.00 31 1010.8
20260504130506 27 186 0.0 11.3 0.00 0.00 0.00 32 1011.8
20260504110505 26 193 0.0 11.3 0.00 0.00 0.00 39 1013.1
20260504100505 24 198 0.0 9.7 0.00 0.00 0.00 43 1014.1
20260504082006 21 203 0.0 6.4 0.00 0.00 0.00 52 1014.6
20260504081506 21 203 6.4 6.4 0.00 0.00 0.00 52 1014.6
20260504081005 20 203 0.0 6.4 0.00 0.00 0.00 52 1014.8
20260504080505 20 203 0.0 6.4 0.00 0.00 0.00 52 1014.8
20260504050005 13 0 0.0 0.0 0.00 0.00 0.00 65 1013.9
20260504045506 12 0 0.0 0.0 0.00 0.00 0.00 64 1013.9
20260504045007 12 0 0.0 0.0 0.00 0.00 0.00 64 1013.8
20260504044505 12 0 0.0 0.0 0.00 0.00 0.00 64 1013.7
20260504044005 12 0 0.0 0.0 0.00 0.00 0.00 64 1013.8
20260504043007 12 0 0.0 0.0 0.00 0.00 0.00 63 1013.8
20260504042505 13 0 0.0 0.0 0.00 0.00 0.00 62 1013.7
20260504041506 13 0 0.0 0.0 0.00 0.00 0.00 62 1013.7
20260504041005 13 0 0.0 0.0 0.00 0.00 0.00 62 1013.6
20260504040507 13 0 0.0 0.0 0.00 0.00 0.00 62 1013.6
20260504040005 13 0 0.0 0.0 0.00 0.00 0.00 62 1013.5
20260504035505 13 0 0.0 0.0 0.00 0.00 0.00 62 1013.6
20260504034506 13 0 0.0 0.0 0.00 0.00 0.00 62 1013.6
20260504034006 13 0 0.0 0.0 0.00 0.00 0.00 62 1013.7
20260504033506 13 0 0.0 0.0 0.00 0.00 0.00 62 1013.6
20260504033005 13 0 0.0 0.0 0.00 0.00 0.00 62 1013.6
20260504032505 13 0 0.0 0.0 0.00 0.00 0.00 62 1013.6
20260504031506 13 0 0.0 0.0 0.00 0.00 0.00 60 1013.6
20260504031005 13 0 0.0 0.0 0.00 0.00 0.00 60 1013.6
20260504030505 13 0 0.0 0.0 0.00 0.00 0.00 60 1013.4
20260504030007 13 0 0.0 0.0 0.00 0.00 0.00 60 1013.8
20260504025505 13 0 0.0 0.0 0.00 0.00 0.00 59 1013.7
20260504025005 13 0 0.0 0.0 0.00 0.00 0.00 59 1013.8
20260504024505 13 0 0.0 0.0 0.00 0.00 0.00 59 1013.5
20260504024006 14 0 0.0 0.0 0.00 0.00 0.00 59 1013.5
20260504023506 14 0 0.0 0.0 0.00 0.00 0.00 59 1013.6
20260504023005 14 0 0.0 0.0 0.00 0.00 0.00 59 1013.6
20260504022505 14 0 0.0 0.0 0.00 0.00 0.00 59 1013.6
20260504022006 14 0 0.0 0.0 0.00 0.00 0.00 58 1013.5
20260504021505 14 0 0.0 0.0 0.00 0.00 0.00 58 1013.7
20260504021007 14 0 0.0 0.0 0.00 0.00 0.00 58 1013.7
20260504015505 14 0 0.0 0.0 0.00 0.00 0.00 57 1013.7
20260504015005 14 203 0.0 11.3 0.00 0.00 0.00 57 1013.7
20260504014505 14 203 0.0 12.9 0.00 0.00 0.00 57 1013.7
20260504014007 14 203 0.0 12.9 0.00 0.00 0.00 57 1013.6
20260504013505 14 0 0.0 0.0 0.00 0.00 0.00 57 1013.6
20260504013006 14 0 0.0 0.0 0.00 0.00 0.00 57 1013.6
20260504012505 14 0 0.0 0.0 0.00 0.00 0.00 56 1013.5
20260504012006 14 0 0.0 0.0 0.00 0.00 0.00 56 1013.4
20260504011005 14 0 0.0 0.0 0.00 0.00 0.00 56 1013.3
20260504010005 14 0 0.0 0.0 0.00 0.00 0.00 55 1013.3
20260504005506 14 0 0.0 0.0 0.00 0.00 0.00 55 1013.2
20260504005005 15 0 0.0 0.0 0.00 0.00 0.00 55 1013.1
20260504004505 15 0 0.0 0.0 0.00 0.00 0.00 55 1013.1
20260504004005 15 0 0.0 0.0 0.00 0.00 0.00 54 1013.1
20260504003506 15 0 0.0 0.0 0.00 0.00 0.00 54 1013.2
20260504003006 15 0 0.0 0.0 0.00 0.00 0.00 54 1013.1
20260504002005 15 0 0.0 0.0 0.00 0.00 0.00 53 1013.2
20260504001005 15 0 0.0 0.0 0.00 0.00 0.00 52 1013.3
20260504000505 15 0 0.0 0.0 0.00 0.00 0.00 52 1013.3
20260504000006 15 0 0.0 0.0 0.00 0.00 0.00 51 1013.6
20260503235505 15 0 0.0 0.0 0.00 0.00 0.00 51 1013.6
20260503235007 15 0 0.0 0.0 0.00 0.00 0.00 51 1013.5
20260503234505 16 0 0.0 0.0 0.00 0.00 0.00 51 1013.6
20260503234005 16 0 0.0 0.0 0.00 0.00 0.00 51 1013.5
20260503233506 16 0 0.0 0.0 0.00 0.00 0.00 51 1013.5
20260503233006 16 0 0.0 0.0 0.00 0.00 0.00 50 1013.6
20260503232505 16 0 0.0 0.0 0.00 0.00 0.00 50 1013.7
20260503232005 16 0 0.0 0.0 0.00 0.00 0.00 50 1013.5
20260503231505 16 0 0.0 0.0 0.00 0.00 0.00 50 1013.6
20260503231007 16 0 0.0 0.0 0.00 0.00 0.00 50 1013.6
20260503230505 16 0 0.0 0.0 0.00 0.00 0.00 50 1013.6
20260503230007 16 0 0.0 0.0 0.00 0.00 0.00 49 1013.6
20260503225505 16 0 0.0 0.0 0.00 0.00 0.00 49 1013.5
20260503225007 16 0 0.0 0.0 0.00 0.00 0.00 49 1013.6
20260503224505 16 0 0.0 0.0 0.00 0.00 0.00 49 1013.6
20260503223505 16 0 0.0 0.0 0.00 0.00 0.00 48 1013.8
20260503223007 16 0 0.0 0.0 0.00 0.00 0.00 48 1013.8
20260503222505 16 0 0.0 0.0 0.00 0.00 0.00 48 1013.8
20260503222005 16 112 0.0 8.0 0.00 0.00 0.00 48 1013.8
20260503221507 16 112 0.0 8.0 0.00 0.00 0.00 47 1013.8
20260503221005 17 0 0.0 0.0 0.00 0.00 0.00 47 1014.0
20260503220505 17 0 0.0 0.0 0.00 0.00 0.00 47 1014.0
20260503220006 17 0 0.0 0.0 0.00 0.00 0.00 47 1013.9
20260503215006 17 0 0.0 0.0 0.00 0.00 0.00 47 1014.0
20260503214505 17 0 0.0 0.0 0.00 0.00 0.00 47 1013.9
20260503213505 17 0 0.0 0.0 0.00 0.00 0.00 47 1013.9
20260503213005 17 0 0.0 0.0 0.00 0.00 0.00 47 1013.7
20260503212505 17 0 0.0 0.0 0.00 0.00 0.00 47 1014.1
20260503212005 17 0 0.0 0.0 0.00 0.00 0.00 47 1014.1
20260503211506 17 203 0.0 9.7 0.00 0.00 0.00 46 1014.1
20260503211005 17 203 0.0 9.7 0.00 0.00 0.00 46 1014.1
20260503210505 17 0 0.0 0.0 0.00 0.00 0.00 46 1014.0
20260503210005 18 0 0.0 0.0 0.00 0.00 0.00 46 1014.0
20260503205506 18 203 0.0 4.8 0.00 0.00 0.00 46 1014.0
20260503205005 18 203 0.0 4.8 0.00 0.00 0.00 45 1014.1
20260503204505 18 203 0.0 3.2 0.00 0.00 0.00 45 1014.1
20260503203505 18 181 0.0 3.2 0.00 0.00 0.00 45 1014.3
20260503203005 18 181 0.0 3.2 0.00 0.00 0.00 44 1014.1
20260503202505 18 203 0.0 1.6 0.00 0.00 0.00 44 1014.2
20260503202006 18 200 0.0 8.0 0.00 0.00 0.00 44 1014.2
20260503201005 18 195 0.0 9.7 0.00 0.00 0.00 43 1014.3
20260503200007 19 203 0.0 8.0 0.00 0.00 0.00 43 1014.2
20260503195505 19 203 0.0 8.0 0.00 0.00 0.00 42 1014.3
20260503195005 19 0 0.0 0.0 0.00 0.00 0.00 42 1014.3
20260503194506 19 112 0.0 8.0 0.00 0.00 0.00 42 1014.2
20260503194005 19 174 0.0 11.3 0.00 0.00 0.00 42 1014.2
20260503193507 20 203 0.0 11.3 0.00 0.00 0.00 42 1014.2
20260503193005 20 0 0.0 0.0 0.00 0.00 0.00 42 1014.3
20260503192505 20 0 0.0 0.0 0.00 0.00 0.00 41 1014.4
20260503192005 20 0 0.0 0.0 0.00 0.00 0.00 41 1014.4
20260503191506 20 0 0.0 0.0 0.00 0.00 0.00 41 1014.4
20260503191006 20 0 0.0 0.0 0.00 0.00 0.00 41 1014.4
20260503190505 20 0 0.0 0.0 0.00 0.00 0.00 41 1014.4
20260503190005 20 0 0.0 0.0 0.00 0.00 0.00 41 1014.3
20260503185005 20 0 0.0 0.0 0.00 0.00 0.00 40 1014.3
20260503184505 20 0 0.0 0.0 0.00 0.00 0.00 40 1014.1
20260503184005 20 0 0.0 0.0 0.00 0.00 0.00 40 1014.1
20260503183506 20 0 0.0 0.0 0.00 0.00 0.00 40 1014.2
20260503183005 21 0 0.0 0.0 0.00 0.00 0.00 39 1014.2
20260503182506 21 0 0.0 0.0 0.00 0.00 0.00 39 1014.0
20260503182006 21 0 0.0 0.0 0.00 0.00 0.00 39 1013.8
20260503181506 21 0 0.0 0.0 0.00 0.00 0.00 37 1014.0
20260503180504 21 0 0.0 0.0 0.00 0.00 0.00 38 1013.7
20260503175507 21 0 0.0 0.0 0.00 0.00 0.00 36 1013.6
20260503175005 22 0 0.0 0.0 0.00 0.00 0.00 36 1013.7
20260503174505 22 181 0.0 6.4 0.00 0.00 0.00 36 1013.7
20260503174004 22 185 0.0 9.7 0.00 0.00 0.00 36 1013.6
20260503173506 22 188 0.0 9.7 0.00 0.00 0.00 36 1013.6
20260503173005 22 195 0.0 3.2 0.00 0.00 0.00 36 1013.7
20260503172505 22 200 0.0 9.7 0.00 0.00 0.00 35 1013.7
20260503172005 23 203 0.0 9.7 0.00 0.00 0.00 35 1013.7
20260503171506 23 141 0.0 14.5 0.00 0.00 0.00 35 1013.7
20260503171005 23 141 0.0 14.5 0.00 0.00 0.00 34 1013.6